This demonstration page uses our WeatherBlox Daily Observations layout. Learn more.

Left ArrowRight Arrow

Hourly Observations for December 2, 2021

Temp ( °F °C ) Dew Point ( °F °C ) Humidity (%) Winds ( mph kmh ) Pressure ( in mb ) Visibility ( mi km ) Precip ( " mm )
12:59 am 00:59 Cloudy 53 11.7 37 2.8 55 55 SSW 8 13 30.06 1018 10 16 0.00 0.00
1:59 am 01:59 Mostly Cloudy 52 11.1 38 3.3 59 59 S 8 13 30.04 1017 10 16 0.00 0.00
2:59 am 02:59 Mostly Cloudy 54 12.2 38 3.3 55 55 SSW 9 15 30.01 1016 10 16 0.00 0.00
3:59 am 03:59 Partly Cloudy 53 11.7 39 3.9 59 59 SSW 10 17 30.00 1016 10 16 0.00 0.00
4:59 am 04:59 Mostly Clear 53 11.7 39 3.9 59 59 SSW 9 15 29.99 1016 10 16 0.00 0.00
5:59 am 05:59 Mostly Clear 52 11.1 39 3.9 61 61 SSW 10 17 29.99 1016 10 16 0.00 0.00
6:59 am 06:59 Mostly Clear 52 11.1 39 3.9 61 61 SSW 10 17 29.99 1016 10 16 0.00 0.00
7:59 am 07:59 Mostly Sunny 54 12.2 40 4.4 59 59 SW 8 13 29.99 1016 9 14 0.00 0.00
8:59 am 08:59 Mostly Sunny 56 13.3 41 5 57 57 SW 10 17 29.98 1015 9 14 0.00 0.00
9:59 am 09:59 Partly Cloudy 60 15.6 41 5 50 50 WSW 12 19 29.97 1015 9 14 0.00 0.00
10:59 am 10:59 Partly Cloudy 64 17.8 42 5.6 45 45 SW 10 17 29.94 1014 10 16 0.00 0.00
11:59 am 11:59 Partly Cloudy 66 18.9 42 5.6 42 42 SW 16 26 29.89 1012 10 16 0.00 0.00
12:59 pm 12:59 Mostly Cloudy 69 20.6 43 6.1 39 39 WSW 12 19 29.87 1011 10 16 0.00 0.00
1:59 pm 13:59 Mostly Cloudy 69 20.6 43 6.1 39 39 SW 10 17 29.84 1010 10 16 0.00 0.00
2:59 pm 14:59 Mostly Cloudy 69 20.6 42 5.6 38 38 SW 15 24 29.83 1010 10 16 0.00 0.00
3:59 pm 15:59 Partly Cloudy 68 20 41 5 38 38 WSW 12 19 29.82 1010 10 16 0.00 0.00
4:59 pm 16:59 Partly Cloudy 65 18.3 42 5.6 43 43 SW 8 13 29.83 1010 10 16 0.00 0.00
5:59 pm 17:59 Partly Cloudy 63 17.2 42 5.6 47 47 SSW 8 13 29.83 1010 10 16 0.00 0.00
6:59 pm 18:59 Partly Cloudy 64 17.8 42 5.6 45 45 SSW 12 19 29.82 1010 10 16 0.00 0.00
7:59 pm 19:59 Partly Cloudy 63 17.2 42 5.6 47 47 SSW 10 17 29.82 1010 10 16 0.00 0.00
8:59 pm 20:59 Partly Cloudy 63 17.2 42 5.6 47 47 SW 7 11 29.82 1010 10 16 0.00 0.00
9:59 pm 21:59 Mostly Clear 63 17.2 42 5.6 47 47 SW 12 19 29.82 1010 10 16 0.00 0.00
10:59 pm 22:59 Mostly Clear 63 17.2 42 5.6 47 47 WSW 13 20 29.82 1010 10 16 0.00 0.00
11:59 pm 23:59 Mostly Clear 62 16.7 42 5.6 48 48 WSW 12 19 29.83 1010 10 16 0.00 0.00

Powered by AerisWeather